| time (UTC) | temp C | wind direction | speed KPH | gust KPH | rain 1hr cm | rain 24hr cm | rain mn cm | humidity % | barometer mb |
| 20260902124339 | 14 | 170 | 14.5 | 29.0 | 0.00 | 0.00 | 0.00 | 85 | 1007.6 |
| 20260902123833 | 14 | 49 | 14.5 | 22.5 | 0.00 | 0.00 | 0.00 | 85 | 1007.6 |
| 20260902123330 | 14 | 165 | 11.3 | 16.1 | 0.00 | 0.00 | 0.00 | 84 | 1007.6 |
| 20260902122828 | 14 | 180 | 12.9 | 17.7 | 0.00 | 0.00 | 0.00 | 83 | 1007.6 |
| 20260902122325 | 14 | 177 | 9.7 | 24.1 | 0.00 | 0.00 | 0.00 | 82 | 1007.9 |
| 20260902121824 | 15 | 182 | 4.8 | 12.9 | 0.00 | 0.00 | 0.00 | 82 | 1007.9 |
| 20260902121319 | 15 | 144 | 6.4 | 9.7 | 0.00 | 0.00 | 0.00 | 82 | 1007.9 |
| 20260902120815 | 14 | 101 | 11.3 | 22.5 | 0.00 | 0.00 | 0.00 | 82 | 1007.9 |
| 20260902120311 | 14 | 155 | 9.7 | 20.9 | 0.00 | 0.00 | 0.00 | 84 | 1007.6 |
| 20260902115805 | 13 | 116 | 8.0 | 11.3 | 0.00 | 0.00 | 0.00 | 84 | 1007.9 |
| 20260902115301 | 14 | 174 | 4.8 | 17.7 | 0.00 | 0.00 | 0.00 | 84 | 1007.9 |
| 20260902114757 | 14 | 121 | 6.4 | 12.9 | 0.00 | 0.00 | 0.00 | 84 | 1007.9 |
| 20260902114253 | 14 | 155 | 9.7 | 12.9 | 0.00 | 0.00 | 0.00 | 83 | 1007.9 |
| 20260902113747 | 14 | 182 | 9.7 | 16.1 | 0.00 | 0.00 | 0.00 | 82 | 1007.9 |
| 20260902113243 | 14 | 83 | 11.3 | 16.1 | 0.00 | 0.00 | 0.00 | 82 | 1008.3 |
| 20260902112742 | 14 | 200 | 9.7 | 12.9 | 0.00 | 0.00 | 0.00 | 82 | 1008.3 |
| 20260902112239 | 14 | 117 | 4.8 | 16.1 | 0.00 | 0.00 | 0.00 | 82 | 1008.3 |
| 20260902111734 | 14 | 164 | 4.8 | 16.1 | 0.00 | 0.00 | 0.00 | 82 | 1008.6 |
| 20260902111231 | 14 | 210 | 6.4 | 11.3 | 0.00 | 0.00 | 0.00 | 82 | 1008.6 |
| 20260902110726 | 14 | 179 | 4.8 | 11.3 | 0.00 | 0.00 | 0.00 | 82 | 1008.6 |
| 20260902110222 | 14 | 151 | 4.8 | 14.5 | 0.00 | 0.00 | 0.00 | 81 | 1009.0 |
| 20260902105721 | 14 | 78 | 6.4 | 12.9 | 0.00 | 0.00 | 0.00 | 81 | 1009.0 |
| 20260902105217 | 14 | 114 | 6.4 | 6.4 | 0.00 | 0.00 | 0.00 | 82 | 1008.6 |
| 20260902104712 | 14 | 160 | 4.8 | 14.5 | 0.00 | 0.00 | 0.00 | 81 | 1009.0 |
| 20260902104208 | 14 | 112 | 1.6 | 12.9 | 0.00 | 0.00 | 0.00 | 81 | 1009.0 |
| 20260902103707 | 15 | 137 | 9.7 | 11.3 | 0.00 | 0.00 | 0.00 | 81 | 1009.0 |
| 20260902103202 | 14 | 163 | 3.2 | 9.7 | 0.00 | 0.00 | 0.00 | 80 | 1009.0 |
| 20260902102658 | 15 | 124 | 9.7 | 14.5 | 0.00 | 0.00 | 0.00 | 80 | 1009.0 |
| 20260902102155 | 15 | 122 | 9.7 | 14.5 | 0.00 | 0.00 | 0.00 | 80 | 1009.0 |
| 20260902101650 | 15 | 151 | 8.0 | 11.3 | 0.00 | 0.00 | 0.00 | 80 | 1009.0 |
| 20260902101150 | 15 | 135 | 4.8 | 9.7 | 0.00 | 0.00 | 0.00 | 79 | 1009.0 |
| 20260902100644 | 15 | 106 | 4.8 | 11.3 | 0.00 | 0.00 | 0.00 | 78 | 1009.0 |
| 20260902100139 | 15 | 133 | 8.0 | 11.3 | 0.00 | 0.00 | 0.00 | 79 | 1008.6 |
| 20260902095638 | 14 | 113 | 3.2 | 9.7 | 0.00 | 0.00 | 0.00 | 80 | 1009.0 |
| 20260902095138 | 14 | 83 | 6.4 | 9.7 | 0.00 | 0.00 | 0.00 | 81 | 1009.0 |
| 20260902094633 | 13 | 134 | 3.2 | 4.8 | 0.00 | 0.00 | 0.00 | 82 | 1009.0 |
| 20260902094129 | 13 | 135 | 0.0 | 0.0 | 0.00 | 0.00 | 0.00 | 82 | 1009.0 |
| 20260902093623 | 13 | 117 | 3.2 | 4.8 | 0.00 | 0.00 | 0.00 | 82 | 1009.3 |
| 20260902093112 | 13 | 106 | 1.6 | 4.8 | 0.00 | 0.00 | 0.00 | 82 | 1009.3 |
| 20260902092607 | 13 | 152 | 3.2 | 6.4 | 0.00 | 0.00 | 0.00 | 83 | 1009.0 |
| 20260902092102 | 13 | 126 | 3.2 | 6.4 | 0.00 | 0.00 | 0.00 | 84 | 1009.3 |
| 20260902091557 | 13 | 135 | 1.6 | 4.8 | 0.00 | 0.00 | 0.00 | 84 | 1009.3 |
| 20260902091053 | 14 | 124 | 3.2 | 6.4 | 0.00 | 0.00 | 0.00 | 84 | 1009.3 |
| 20260902090549 | 14 | 157 | 4.8 | 4.8 | 0.00 | 0.00 | 0.00 | 84 | 1009.6 |
| 20260902090048 | 14 | 174 | 1.6 | 3.2 | 0.00 | 0.00 | 0.00 | 83 | 1009.6 |
| 20260902085548 | 14 | 176 | 3.2 | 11.3 | 0.00 | 0.00 | 0.00 | 83 | 1009.6 |
| 20260902085043 | 14 | 112 | 1.6 | 9.7 | 0.00 | 0.00 | 0.00 | 83 | 1009.6 |
| 20260902084539 | 14 | 118 | 0.0 | 4.8 | 0.00 | 0.00 | 0.00 | 84 | 1009.6 |
| 20260902084034 | 13 | 184 | 4.8 | 12.9 | 0.00 | 0.00 | 0.00 | 85 | 1009.6 |
| 20260902083524 | 13 | 121 | 4.8 | 12.9 | 0.00 | 0.00 | 0.00 | 88 | 1010.0 |
| 20260902083019 | 13 | 184 | 4.8 | 9.7 | 0.00 | 0.00 | 0.00 | 88 | 1009.6 |
| 20260902082515 | 13 | 101 | 1.6 | 4.8 | 0.00 | 0.00 | 0.00 | 89 | 1010.0 |
| 20260902082011 | 13 | 116 | 3.2 | 6.4 | 0.00 | 0.00 | 0.00 | 89 | 1010.0 |
| 20260902081507 | 13 | 118 | 3.2 | 6.4 | 0.00 | 0.00 | 0.00 | 89 | 1010.0 |
| 20260902081001 | 13 | 164 | 3.2 | 4.8 | 0.00 | 0.00 | 0.00 | 89 | 1010.0 |
| 20260902080457 | 13 | 184 | 6.4 | 9.7 | 0.00 | 0.00 | 0.00 | 89 | 1010.3 |
| 20260902075957 | 13 | 184 | 1.6 | 6.4 | 0.00 | 0.00 | 0.00 | 89 | 1010.0 |
| 20260902075453 | 13 | 162 | 1.6 | 3.2 | 0.00 | 0.00 | 0.00 | 89 | 1010.3 |
| 20260902074949 | 13 | 198 | 3.2 | 4.8 | 0.00 | 0.00 | 0.00 | 89 | 1010.3 |
| 20260902074444 | 13 | 133 | 3.2 | 3.2 | 0.00 | 0.00 | 0.00 | 89 | 1010.3 |
| 20260902073938 | 13 | 159 | 4.8 | 9.7 | 0.00 | 0.00 | 0.00 | 88 | 1010.3 |
| 20260902073434 | 13 | 161 | 3.2 | 4.8 | 0.00 | 0.00 | 0.00 | 88 | 1010.3 |
| 20260902072931 | 13 | 153 | 3.2 | 11.3 | 0.00 | 0.00 | 0.00 | 88 | 1010.3 |
| 20260902072426 | 13 | 155 | 6.4 | 9.7 | 0.00 | 0.00 | 0.00 | 88 | 1010.3 |
| 20260902071922 | 13 | 171 | 3.2 | 6.4 | 0.00 | 0.00 | 0.00 | 88 | 1010.3 |
| 20260902071421 | 13 | 130 | 4.8 | 4.8 | 0.00 | 0.00 | 0.00 | 88 | 1010.3 |
| 20260902070918 | 13 | 137 | 3.2 | 4.8 | 0.00 | 0.00 | 0.00 | 88 | 1010.7 |
| 20260902070414 | 13 | 124 | 0.0 | 6.4 | 0.00 | 0.00 | 0.00 | 88 | 1010.3 |
| 20260902065912 | 13 | 91 | 3.2 | 4.8 | 0.00 | 0.00 | 0.00 | 88 | 1010.7 |
| 20260902065408 | 13 | 134 | 3.2 | 4.8 | 0.00 | 0.00 | 0.00 | 88 | 1010.3 |
| 20260902064903 | 13 | 192 | 3.2 | 6.4 | 0.00 | 0.00 | 0.00 | 88 | 1010.7 |
| 20260902064359 | 13 | 114 | 3.2 | 4.8 | 0.00 | 0.00 | 0.00 | 88 | 1010.7 |
| 20260902063854 | 13 | 168 | 3.2 | 9.7 | 0.00 | 0.00 | 0.00 | 88 | 1010.7 |
| 20260902063348 | 13 | 175 | 9.7 | 11.3 | 0.00 | 0.00 | 0.00 | 88 | 1010.7 |
| 20260902062842 | 13 | 152 | 4.8 | 12.9 | 0.00 | 0.00 | 0.00 | 87 | 1010.7 |
| 20260902062336 | 13 | 120 | 6.4 | 6.4 | 0.00 | 0.00 | 0.00 | 87 | 1010.7 |
| 20260902061831 | 13 | 152 | 3.2 | 6.4 | 0.00 | 0.00 | 0.00 | 87 | 1010.7 |
| 20260902061326 | 13 | 161 | 6.4 | 9.7 | 0.00 | 0.00 | 0.00 | 87 | 1010.7 |
| 20260902060823 | 13 | 99 | 3.2 | 4.8 | 0.00 | 0.00 | 0.00 | 87 | 1010.7 |
| 20260902060318 | 13 | 148 | 1.6 | 3.2 | 0.00 | 0.00 | 0.00 | 86 | 1011.0 |
| 20260902055813 | 14 | 160 | 3.2 | 3.2 | 0.00 | 0.00 | 0.00 | 85 | 1010.7 |
| 20260902055309 | 14 | 168 | 1.6 | 3.2 | 0.00 | 0.00 | 0.00 | 85 | 1010.7 |
| 20260902054804 | 14 | 156 | 3.2 | 3.2 | 0.00 | 0.00 | 0.00 | 84 | 1011.0 |
| 20260902054300 | 15 | 117 | 1.6 | 6.4 | 0.00 | 0.00 | 0.00 | 84 | 1011.0 |
| 20260902053755 | 15 | 124 | 0.0 | 3.2 | 0.00 | 0.00 | 0.00 | 83 | 1011.0 |
| 20260902053254 | 15 | 172 | 4.8 | 4.8 | 0.00 | 0.00 | 0.00 | 82 | 1011.0 |
| 20260902052748 | 15 | 102 | 3.2 | 3.2 | 0.00 | 0.00 | 0.00 | 82 | 1011.3 |
| 20260902052243 | 15 | 156 | 3.2 | 4.8 | 0.00 | 0.00 | 0.00 | 82 | 1011.3 |
| 20260902051738 | 15 | 114 | 1.6 | 4.8 | 0.00 | 0.00 | 0.00 | 82 | 1011.3 |
| 20260902051232 | 15 | 159 | 1.6 | 1.6 | 0.00 | 0.00 | 0.00 | 83 | 1011.3 |
| 20260902050727 | 15 | 159 | 0.0 | 1.6 | 0.00 | 0.00 | 0.00 | 83 | 1011.3 |
| 20260902050223 | 15 | 189 | 0.0 | 3.2 | 0.00 | 0.00 | 0.00 | 84 | 1011.3 |
| 20260902045723 | 15 | 191 | 0.0 | 0.0 | 0.00 | 0.00 | 0.00 | 84 | 1011.3 |
| 20260902045219 | 15 | 191 | 0.0 | 1.6 | 0.00 | 0.00 | 0.00 | 84 | 1011.3 |
| 20260902044714 | 15 | 191 | 0.0 | 0.0 | 0.00 | 0.00 | 0.00 | 83 | 1011.3 |
| 20260902044209 | 15 | 191 | 0.0 | 0.0 | 0.00 | 0.00 | 0.00 | 83 | 1011.3 |
| 20260902043704 | 15 | 191 | 0.0 | 0.0 | 0.00 | 0.00 | 0.00 | 83 | 1011.3 |
| 20260902043200 | 15 | 191 | 0.0 | 1.6 | 0.00 | 0.00 | 0.00 | 82 | 1011.3 |
| 20260902042659 | 15 | 191 | 0.0 | 0.0 | 0.00 | 0.00 | 0.00 | 82 | 1011.3 |
| 20260902042154 | 15 | 191 | 0.0 | 0.0 | 0.00 | 0.00 | 0.00 | 81 | 1011.3 |
| 20260902041654 | 15 | 191 | 0.0 | 1.6 | 0.00 | 0.00 | 0.00 | 81 | 1011.3 |
| 20260902041148 | 15 | 191 | 0.0 | 0.0 | 0.00 | 0.00 | 0.00 | 80 | 1011.3 |
| 20260902040642 | 15 | 191 | 0.0 | 1.6 | 0.00 | 0.00 | 0.00 | 81 | 1011.3 |
| 20260902040138 | 15 | 198 | 0.0 | 0.0 | 0.00 | 0.00 | 0.00 | 82 | 1011.3 |
| 20260902035636 | 15 | 198 | 0.0 | 0.0 | 0.00 | 0.00 | 0.00 | 82 | 1011.3 |
| 20260902035132 | 15 | 198 | 0.0 | 0.0 | 0.00 | 0.00 | 0.00 | 81 | 1011.3 |
| 20260902034631 | 15 | 198 | 0.0 | 0.0 | 0.00 | 0.00 | 0.00 | 81 | 1011.3 |
| 20260902034130 | 15 | 198 | 0.0 | 0.0 | 0.00 | 0.00 | 0.00 | 80 | 1011.3 |
| 20260902033630 | 15 | 198 | 0.0 | 0.0 | 0.00 | 0.00 | 0.00 | 80 | 1011.3 |
| 20260902033125 | 15 | 198 | 0.0 | 0.0 | 0.00 | 0.00 | 0.00 | 80 | 1011.3 |
| 20260902032623 | 16 | 198 | 0.0 | 0.0 | 0.00 | 0.00 | 0.00 | 79 | 1011.3 |
| 20260902032118 | 16 | 198 | 0.0 | 0.0 | 0.00 | 0.00 | 0.00 | 78 | 1011.3 |
| 20260902031613 | 16 | 198 | 0.0 | 0.0 | 0.00 | 0.00 | 0.00 | 78 | 1011.3 |
| 20260902031110 | 16 | 198 | 0.0 | 0.0 | 0.00 | 0.00 | 0.00 | 77 | 1011.3 |
| 20260902030609 | 16 | 198 | 0.0 | 0.0 | 0.00 | 0.00 | 0.00 | 77 | 1011.3 |
| 20260902030104 | 16 | 198 | 0.0 | 0.0 | 0.00 | 0.00 | 0.00 | 77 | 1011.3 |
| 20260902025603 | 16 | 198 | 0.0 | 0.0 | 0.00 | 0.00 | 0.00 | 77 | 1011.3 |
| 20260902025059 | 16 | 198 | 0.0 | 1.6 | 0.00 | 0.00 | 0.00 | 76 | 1011.3 |
| 20260902024554 | 16 | 198 | 0.0 | 0.0 | 0.00 | 0.00 | 0.00 | 76 | 1011.3 |
| 20260902024054 | 16 | 198 | 0.0 | 0.0 | 0.00 | 0.00 | 0.00 | 76 | 1011.3 |
| 20260902023550 | 16 | 198 | 0.0 | 0.0 | 0.00 | 0.00 | 0.00 | 76 | 1011.3 |
| 20260902023045 | 16 | 198 | 0.0 | 0.0 | 0.00 | 0.00 | 0.00 | 76 | 1011.3 |
| 20260902022544 | 16 | 198 | 0.0 | 0.0 | 0.00 | 0.00 | 0.00 | 75 | 1011.3 |
| 20260902022041 | 17 | 198 | 0.0 | 0.0 | 0.00 | 0.00 | 0.00 | 75 | 1011.3 |
| 20260902021536 | 17 | 198 | 0.0 | 0.0 | 0.00 | 0.00 | 0.00 | 75 | 1011.3 |
| 20260902021031 | 17 | 198 | 0.0 | 0.0 | 0.00 | 0.00 | 0.00 | 74 | 1011.3 |
| 20260902020526 | 17 | 198 | 0.0 | 0.0 | 0.00 | 0.00 | 0.00 | 74 | 1011.3 |
| 20260902020022 | 17 | 198 | 0.0 | 0.0 | 0.00 | 0.00 | 0.00 | 74 | 1011.8 |
| 20260902015518 | 17 | 198 | 0.0 | 1.6 | 0.00 | 0.00 | 0.00 | 75 | 1011.3 |
| 20260902015013 | 17 | 198 | 0.0 | 0.0 | 0.00 | 0.00 | 0.00 | 75 | 1011.8 |
| 20260902014510 | 17 | 200 | 0.0 | 1.6 | 0.00 | 0.00 | 0.00 | 75 | 1011.8 |
| 20260902014004 | 17 | 172 | 1.6 | 1.6 | 0.00 | 0.00 | 0.00 | 75 | 1011.8 |
| 20260902013458 | 17 | 94 | 1.6 | 1.6 | 0.00 | 0.00 | 0.00 | 75 | 1011.3 |
| 20260902012953 | 17 | 312 | 1.6 | 3.2 | 0.00 | 0.00 | 0.00 | 75 | 1011.8 |
| 20260902012444 | 17 | 285 | 3.2 | 3.2 | 0.00 | 0.00 | 0.00 | 75 | 1011.8 |
| 20260902011939 | 17 | 95 | 0.0 | 0.0 | 0.00 | 0.00 | 0.00 | 74 | 1011.3 |
| 20260902011435 | 17 | 107 | 0.0 | 1.6 | 0.00 | 0.00 | 0.00 | 74 | 1011.8 |
| 20260902010934 | 17 | 106 | 0.0 | 1.6 | 0.00 | 0.00 | 0.00 | 74 | 1011.8 |
| 20260902010429 | 17 | 289 | 1.6 | 1.6 | 0.00 | 0.00 | 0.00 | 74 | 1011.3 |
| 20260902005928 | 17 | 107 | 0.0 | 1.6 | 0.00 | 0.00 | 0.00 | 74 | 1011.3 |
| 20260902005427 | 17 | 105 | 0.0 | 1.6 | 0.00 | 0.00 | 0.00 | 74 | 1011.8 |
| 20260902004923 | 17 | 132 | 1.6 | 1.6 | 0.00 | 0.00 | 0.00 | 74 | 1011.8 |
| 20260902004422 | 17 | 65 | 3.2 | 4.8 | 0.00 | 0.00 | 0.00 | 74 | 1011.3 |
| 20260902003918 | 17 | 99 | 0.0 | 1.6 | 0.00 | 0.00 | 0.00 | 75 | 1011.8 |
| 20260902003413 | 17 | 102 | 0.0 | 3.2 | 0.00 | 0.00 | 0.00 | 75 | 1011.8 |
| 20260902002908 | 17 | 196 | 0.0 | 1.6 | 0.00 | 0.00 | 0.00 | 75 | 1011.8 |
| 20260902002403 | 17 | 90 | 1.6 | 1.6 | 0.00 | 0.00 | 0.00 | 75 | 1011.3 |
| 20260902001858 | 17 | 286 | 3.2 | 3.2 | 0.00 | 0.00 | 0.00 | 74 | 1011.8 |
| 20260902001353 | 17 | 99 | 0.0 | 0.0 | 0.00 | 0.00 | 0.00 | 75 | 1011.8 |
| 20260902000847 | 17 | 95 | 0.0 | 1.6 | 0.00 | 0.00 | 0.00 | 74 | 1011.8 |
| 20260902000344 | 17 | 73 | 0.0 | 1.6 | 0.00 | 0.00 | 0.00 | 74 | 1011.8 |
| 20260901235837 | 16 | 84 | 0.0 | 1.6 | 0.00 | 0.00 | 0.00 | 75 | 1011.8 |
| 20260901235336 | 16 | 65 | 1.6 | 1.6 | 0.00 | 0.00 | 0.00 | 75 | 1011.8 |
| 20260901234832 | 16 | 94 | 0.0 | 1.6 | 0.00 | 0.00 | 0.00 | 75 | 1011.8 |
| 20260901234326 | 16 | 110 | 0.0 | 1.6 | 0.00 | 0.00 | 0.00 | 75 | 1011.8 |
| 20260901233821 | 17 | 110 | 0.0 | 1.6 | 0.00 | 0.00 | 0.00 | 75 | 1011.8 |
| 20260901233317 | 17 | 288 | 1.6 | 1.6 | 0.00 | 0.00 | 0.00 | 75 | 1011.8 |
| 20260901232812 | 17 | 82 | 1.6 | 1.6 | 0.00 | 0.00 | 0.00 | 74 | 1011.8 |
| 20260901232301 | 17 | 115 | 0.0 | 4.8 | 0.00 | 0.00 | 0.00 | 75 | 1011.8 |
| 20260901231757 | 17 | 58 | 1.6 | 3.2 | 0.00 | 0.00 | 0.00 | 74 | 1011.8 |
| 20260901231248 | 17 | 104 | 0.0 | 6.4 | 0.00 | 0.00 | 0.00 | 74 | 1011.8 |
| 20260901230744 | 17 | 309 | 3.2 | 6.4 | 0.00 | 0.00 | 0.00 | 74 | 1011.3 |
| 20260901230243 | 17 | 103 | 0.0 | 3.2 | 0.00 | 0.00 | 0.00 | 74 | 1011.3 |
| 20260901225738 | 18 | 60 | 0.0 | 3.2 | 0.00 | 0.00 | 0.00 | 73 | 1011.3 |
| 20260901225233 | 17 | 110 | 0.0 | 1.6 | 0.00 | 0.00 | 0.00 | 74 | 1011.3 |
| 20260901224729 | 17 | 82 | 0.0 | 3.2 | 0.00 | 0.00 | 0.00 | 73 | 1011.3 |
| 20260901224225 | 17 | 155 | 1.6 | 3.2 | 0.00 | 0.00 | 0.00 | 73 | 1011.8 |
| 20260901223721 | 17 | 95 | 0.0 | 1.6 | 0.00 | 0.00 | 0.00 | 74 | 1011.8 |
| 20260901223215 | 17 | 87 | 1.6 | 1.6 | 0.00 | 0.00 | 0.00 | 74 | 1011.3 |
| 20260901222711 | 17 | 118 | 0.0 | 3.2 | 0.00 | 0.00 | 0.00 | 75 | 1011.3 |
| 20260901222208 | 17 | 315 | 1.6 | 6.4 | 0.00 | 0.00 | 0.00 | 75 | 1011.8 |
| 20260901221703 | 16 | 109 | 0.0 | 3.2 | 0.00 | 0.00 | 0.00 | 76 | 1011.8 |
| 20260901221159 | 17 | 79 | 1.6 | 6.4 | 0.00 | 0.00 | 0.00 | 76 | 1011.8 |
| 20260901220658 | 17 | 86 | 3.2 | 3.2 | 0.00 | 0.00 | 0.00 | 73 | 1011.8 |
| 20260901220157 | 17 | 109 | 0.0 | 6.4 | 0.00 | 0.00 | 0.00 | 74 | 1011.8 |
| 20260901215655 | 18 | 302 | 4.8 | 6.4 | 0.00 | 0.00 | 0.00 | 72 | 1011.8 |
| 20260901215150 | 18 | 106 | 0.0 | 1.6 | 0.00 | 0.00 | 0.00 | 72 | 1011.8 |
| 20260901214648 | 18 | 96 | 1.6 | 1.6 | 0.00 | 0.00 | 0.00 | 72 | 1012.1 |
| 20260901214143 | 18 | 182 | 1.6 | 3.2 | 0.00 | 0.00 | 0.00 | 73 | 1011.8 |
| 20260901213642 | 19 | 111 | 1.6 | 4.8 | 0.00 | 0.00 | 0.00 | 73 | 1011.8 |
| 20260901213137 | 19 | 106 | 0.0 | 1.6 | 0.00 | 0.00 | 0.00 | 72 | 1011.8 |
| 20260901212637 | 19 | 131 | 0.0 | 1.6 | 0.00 | 0.00 | 0.00 | 72 | 1012.1 |
| 20260901212133 | 19 | 149 | 4.8 | 4.8 | 0.00 | 0.00 | 0.00 | 72 | 1012.1 |
| 20260901211628 | 19 | 118 | 1.6 | 4.8 | 0.00 | 0.00 | 0.00 | 72 | 1012.1 |
| 20260901211124 | 19 | 110 | 0.0 | 4.8 | 0.00 | 0.00 | 0.00 | 73 | 1012.1 |
| 20260901210620 | 20 | 105 | 1.6 | 1.6 | 0.00 | 0.00 | 0.00 | 70 | 1012.1 |
| 20260901210116 | 19 | 197 | 8.0 | 11.3 | 0.00 | 0.00 | 0.00 | 72 | 1012.1 |
| 20260901205611 | 19 | 84 | 1.6 | 4.8 | 0.00 | 0.00 | 0.00 | 73 | 1012.1 |
| 20260901205105 | 19 | 93 | 1.6 | 9.7 | 0.00 | 0.00 | 0.00 | 73 | 1012.1 |
| 20260901204602 | 20 | 187 | 4.8 | 6.4 | 0.00 | 0.00 | 0.00 | 71 | 1012.1 |
| 20260901204056 | 20 | 157 | 3.2 | 6.4 | 0.00 | 0.00 | 0.00 | 70 | 1012.1 |
| 20260901203550 | 20 | 121 | 3.2 | 3.2 | 0.00 | 0.00 | 0.00 | 70 | 1012.1 |
| 20260901203046 | 20 | 99 | 0.0 | 3.2 | 0.00 | 0.00 | 0.00 | 72 | 1012.1 |
| 20260901202545 | 19 | 130 | 3.2 | 6.4 | 0.00 | 0.00 | 0.00 | 73 | 1012.1 |
| 20260901202042 | 20 | 129 | 1.6 | 4.8 | 0.00 | 0.00 | 0.00 | 71 | 1012.1 |
| 20260901201537 | 18 | 135 | 3.2 | 4.8 | 0.00 | 0.00 | 0.00 | 74 | 1012.1 |
| 20260901201036 | 19 | 109 | 3.2 | 9.7 | 0.00 | 0.00 | 0.00 | 72 | 1012.1 |
| 20260901200536 | 20 | 113 | 3.2 | 6.4 | 0.00 | 0.00 | 0.00 | 71 | 1012.1 |
| 20260901200031 | 20 | 90 | 3.2 | 4.8 | 0.00 | 0.00 | 0.00 | 71 | 1012.1 |
| 20260901195528 | 20 | 122 | 1.6 | 3.2 | 0.00 | 0.00 | 0.00 | 70 | 1011.8 |
| 20260901195023 | 20 | 81 | 1.6 | 4.8 | 0.00 | 0.00 | 0.00 | 72 | 1012.1 |
| 20260901194518 | 20 | 167 | 4.8 | 6.4 | 0.00 | 0.00 | 0.00 | 72 | 1012.1 |
| 20260901194014 | 20 | 108 | 3.2 | 6.4 | 0.00 | 0.00 | 0.00 | 70 | 1012.1 |
| 20260901193513 | 20 | 91 | 1.6 | 3.2 | 0.00 | 0.00 | 0.00 | 71 | 1012.1 |
| 20260901193014 | 19 | 91 | 1.6 | 3.2 | 0.00 | 0.00 | 0.00 | 73 | 1012.1 |
| 20260901192509 | 19 | 108 | 1.6 | 12.9 | 0.00 | 0.00 | 0.00 | 72 | 1012.1 |
| 20260901192005 | 19 | 103 | 1.6 | 3.2 | 0.00 | 0.00 | 0.00 | 72 | 1012.1 |
| 20260901191500 | 19 | 81 | 3.2 | 4.8 | 0.00 | 0.00 | 0.00 | 72 | 1012.1 |
| 20260901190955 | 19 | 96 | 1.6 | 12.9 | 0.00 | 0.00 | 0.00 | 74 | 1011.8 |
| 20260901190451 | 19 | 108 | 3.2 | 3.2 | 0.00 | 0.00 | 0.00 | 72 | 1012.1 |
| 20260901185949 | 18 | 99 | 1.6 | 3.2 | 0.00 | 0.00 | 0.00 | 71 | 1012.1 |
| 20260901185444 | 18 | 116 | 1.6 | 1.6 | 0.00 | 0.00 | 0.00 | 73 | 1012.1 |
| 20260901184943 | 18 | 61 | 1.6 | 3.2 | 0.00 | 0.00 | 0.00 | 73 | 1012.1 |
| 20260901184439 | 18 | 74 | 1.6 | 4.8 | 0.00 | 0.00 | 0.00 | 72 | 1012.1 |
| 20260901183934 | 17 | 94 | 1.6 | 3.2 | 0.00 | 0.00 | 0.00 | 75 | 1012.1 |
| 20260901183433 | 17 | 99 | 0.0 | 6.4 | 0.00 | 0.00 | 0.00 | 76 | 1012.1 |
| 20260901182929 | 17 | 38 | 3.2 | 3.2 | 0.00 | 0.00 | 0.00 | 75 | 1012.1 |
| 20260901182424 | 17 | 100 | 0.0 | 3.2 | 0.00 | 0.00 | 0.00 | 74 | 1012.1 |
| 20260901181914 | 17 | 102 | 0.0 | 1.6 | 0.00 | 0.00 | 0.00 | 75 | 1012.1 |
| 20260901181408 | 16 | 108 | 0.0 | 1.6 | 0.00 | 0.00 | 0.00 | 77 | 1012.1 |
| 20260901180907 | 16 | 93 | 1.6 | 3.2 | 0.00 | 0.00 | 0.00 | 78 | 1012.1 |
| 20260901180401 | 16 | 18 | 1.6 | 3.2 | 0.00 | 0.00 | 0.00 | 78 | 1012.1 |
| 20260901175900 | 16 | 136 | 0.0 | 3.2 | 0.00 | 0.00 | 0.00 | 78 | 1012.1 |
| 20260901175354 | 16 | 105 | 0.0 | 1.6 | 0.00 | 0.00 | 0.00 | 78 | 1012.1 |
| 20260901174849 | 16 | 110 | 0.0 | 1.6 | 0.00 | 0.00 | 0.00 | 79 | 1012.1 |
| 20260901174345 | 16 | 116 | 1.6 | 3.2 | 0.00 | 0.00 | 0.00 | 79 | 1012.1 |
| 20260901173841 | 16 | 116 | 0.0 | 0.0 | 0.00 | 0.00 | 0.00 | 79 | 1012.1 |
| 20260901173335 | 16 | 87 | 0.0 | 3.2 | 0.00 | 0.00 | 0.00 | 79 | 1012.1 |
| 20260901172832 | 16 | 172 | 0.0 | 1.6 | 0.00 | 0.00 | 0.00 | 79 | 1011.8 |
| 20260901172331 | 16 | 121 | 0.0 | 3.2 | 0.00 | 0.00 | 0.00 | 80 | 1011.8 |
| 20260901171829 | 16 | 95 | 3.2 | 4.8 | 0.00 | 0.00 | 0.00 | 82 | 1011.8 |
| 20260901171329 | 16 | 110 | 4.8 | 9.7 | 0.00 | 0.00 | 0.00 | 83 | 1011.8 |
| 20260901170828 | 15 | 102 | 1.6 | 6.4 | 0.00 | 0.00 | 0.00 | 85 | 1011.8 |
| 20260901170322 | 15 | 163 | 11.3 | 12.9 | 0.00 | 0.00 | 0.00 | 84 | 1011.8 |
| 20260901165816 | 15 | 189 | 4.8 | 9.7 | 0.00 | 0.00 | 0.00 | 84 | 1011.8 |
| 20260901165310 | 15 | 177 | 1.6 | 6.4 | 0.00 | 0.00 | 0.00 | 85 | 1011.3 |
| 20260901164807 | 15 | 179 | 3.2 | 6.4 | 0.00 | 0.00 | 0.00 | 86 | 1011.8 |
| 20260901164302 | 15 | 218 | 8.0 | 11.3 | 0.00 | 0.00 | 0.00 | 86 | 1011.8 |
| 20260901163757 | 15 | 169 | 1.6 | 6.4 | 0.00 | 0.00 | 0.00 | 88 | 1011.8 |
| 20260901163256 | 14 | 207 | 4.8 | 9.7 | 0.00 | 0.00 | 0.00 | 89 | 1011.8 |
| 20260901162751 | 14 | 180 | 9.7 | 11.3 | 0.00 | 0.00 | 0.00 | 89 | 1011.8 |
| 20260901162251 | 13 | 159 | 3.2 | 6.4 | 0.00 | 0.00 | 0.00 | 90 | 1011.8 |
| 20260901161749 | 13 | 112 | 4.8 | 6.4 | 0.00 | 0.00 | 0.00 | 90 | 1011.8 |
| 20260901161244 | 13 | 150 | 4.8 | 6.4 | 0.00 | 0.00 | 0.00 | 90 | 1011.8 |
| 20260901160740 | 13 | 171 | 4.8 | 12.9 | 0.00 | 0.00 | 0.00 | 91 | 1011.8 |
| 20260901160236 | 13 | 222 | 6.4 | 16.1 | 0.00 | 0.00 | 0.00 | 91 | 1011.8 |
| 20260901155735 | 13 | 170 | 3.2 | 9.7 | 0.00 | 0.00 | 0.00 | 91 | 1011.8 |
| 20260901155231 | 13 | 149 | 3.2 | 12.9 | 0.00 | 0.00 | 0.00 | 91 | 1011.8 |
| 20260901154726 | 13 | 163 | 8.0 | 11.3 | 0.00 | 0.00 | 0.00 | 91 | 1011.3 |
| 20260901154221 | 13 | 155 | 6.4 | 9.7 | 0.00 | 0.00 | 0.00 | 91 | 1011.8 |
| 20260901153716 | 13 | 98 | 1.6 | 9.7 | 0.00 | 0.00 | 0.00 | 91 | 1011.8 |
| 20260901153215 | 13 | 157 | 1.6 | 6.4 | 0.00 | 0.00 | 0.00 | 91 | 1011.8 |
| 20260901152709 | 13 | 170 | 3.2 | 11.3 | 0.00 | 0.00 | 0.00 | 91 | 1011.8 |
| 20260901152203 | 13 | 116 | 1.6 | 12.9 | 0.00 | 0.00 | 0.00 | 91 | 1011.3 |
| 20260901151659 | 13 | 180 | 1.6 | 11.3 | 0.00 | 0.00 | 0.00 | 91 | 1011.8 |
| 20260901151158 | 13 | 140 | 4.8 | 12.9 | 0.00 | 0.00 | 0.00 | 91 | 1011.8 |
| 20260901150658 | 13 | 184 | 8.0 | 9.7 | 0.00 | 0.00 | 0.00 | 91 | 1011.3 |
| 20260901150156 | 13 | 177 | 8.0 | 11.3 | 0.00 | 0.00 | 0.00 | 91 | 1011.3 |
| 20260901145654 | 13 | 98 | 4.8 | 12.9 | 0.00 | 0.00 | 0.00 | 91 | 1011.3 |
| 20260901145153 | 12 | 166 | 6.4 | 11.3 | 0.00 | 0.00 | 0.00 | 91 | 1011.3 |
| 20260901144649 | 12 | 120 | 8.0 | 14.5 | 0.00 | 0.00 | 0.00 | 91 | 1011.3 |
| 20260901144143 | 12 | 150 | 6.4 | 14.5 | 0.00 | 0.00 | 0.00 | 91 | 1011.3 |
| 20260901143639 | 12 | 91 | 4.8 | 9.7 | 0.00 | 0.00 | 0.00 | 91 | 1011.3 |
| 20260901143135 | 12 | 164 | 8.0 | 9.7 | 0.00 | 0.00 | 0.00 | 91 | 1011.3 |
| 20260901142631 | 12 | 158 | 3.2 | 11.3 | 0.00 | 0.00 | 0.00 | 91 | 1011.3 |
| 20260901142130 | 12 | 121 | 4.8 | 6.4 | 0.00 | 0.00 | 0.00 | 90 | 1011.3 |
| 20260901141626 | 12 | 112 | 6.4 | 9.7 | 0.00 | 0.00 | 0.00 | 90 | 1011.3 |
| 20260901141126 | 12 | 128 | 4.8 | 6.4 | 0.00 | 0.00 | 0.00 | 90 | 1011.3 |
| 20260901140625 | 12 | 179 | 3.2 | 6.4 | 0.00 | 0.00 | 0.00 | 90 | 1011.3 |
| 20260901140124 | 12 | 122 | 1.6 | 3.2 | 0.00 | 0.00 | 0.00 | 90 | 1011.3 |
| 20260901135624 | 12 | 127 | 3.2 | 4.8 | 0.00 | 0.00 | 0.00 | 90 | 1011.3 |
| 20260901135119 | 12 | 119 | 1.6 | 3.2 | 0.00 | 0.00 | 0.00 | 90 | 1011.3 |
| 20260901134615 | 12 | 137 | 1.6 | 3.2 | 0.00 | 0.00 | 0.00 | 91 | 1011.3 |
| 20260901134110 | 11 | 162 | 3.2 | 4.8 | 0.00 | 0.00 | 0.00 | 91 | 1011.3 |
| 20260901133609 | 11 | 148 | 1.6 | 3.2 | 0.00 | 0.00 | 0.00 | 91 | 1011.3 |
| 20260901133107 | 11 | 172 | 3.2 | 4.8 | 0.00 | 0.00 | 0.00 | 91 | 1011.3 |
| 20260901132602 | 11 | 136 | 3.2 | 4.8 | 0.00 | 0.00 | 0.00 | 91 | 1011.0 |
| 20260901132056 | 11 | 129 | 1.6 | 1.6 | 0.00 | 0.00 | 0.00 | 91 | 1011.3 |
| 20260901131550 | 11 | 149 | 1.6 | 3.2 | 0.00 | 0.00 | 0.00 | 91 | 1011.0 |
| 20260901131046 | 11 | 123 | 1.6 | 3.2 | 0.00 | 0.00 | 0.00 | 91 | 1011.3 |
| 20260901130545 | 11 | 143 | 1.6 | 3.2 | 0.00 | 0.00 | 0.00 | 92 | 1011.0 |
| 20260901130044 | 11 | 130 | 0.0 | 1.6 | 0.00 | 0.00 | 0.00 | 92 | 1011.0 |
| 20260901125542 | 11 | 126 | 0.0 | 0.0 | 0.00 | 0.00 | 0.00 | 92 | 1011.0 |
| 20260901125038 | 11 | 121 | 0.0 | 0.0 | 0.00 | 0.00 | 0.00 | 92 | 1011.0 |